Date String (YYYY-MM-DD hh:mm:ss) UTC,Instrument flags,Ambient pressure (hPa),Sample flow (lpm),Bypass flow (lpm),Sample temperature (°C),Ambient temperature (°C),ASC tube jacket temperature (°C),LED temperature (°C),Box temperature (°C),Sample RH (%),Mass concentration (μg/m³),Mass concentration (μg/m³)
DateTimeUTC,F1_M11,P_M11,Q1_M11,Q2_M11,T1_M11,T2_M11,T3_M11,T4_M11,T5_M11,U1_M11,X0_M11,X2_M11
2021-08-13 05:00:00,,0834.0,5.00,0.00,29.2,25.5,00.0,38.4,30.6,29.0,0027.41,0010.80
2021-08-13 05:01:00,,0834.0,5.00,0.00,29.0,25.7,00.0,38.4,30.7,29.4,0027.20,0010.68
2021-08-13 05:02:00,,0834.0,4.99,0.00,29.0,26.2,00.0,38.3,30.8,29.6,0025.78,0010.59
2021-08-13 05:03:00,,0834.0,5.00,0.00,28.9,26.6,00.0,38.3,30.9,29.6,0026.43,0010.58
2021-08-13 05:04:00,,0834.0,4.99,0.00,29.0,27.0,00.0,38.3,31.0,29.5,0026.65,0010.68
2021-08-13 05:05:00,,0834.0,5.01,0.00,29.0,27.4,00.0,38.2,31.0,29.5,0026.77,0010.73
2021-08-13 05:06:00,,0834.0,4.98,0.00,29.1,27.7,00.0,38.2,31.1,29.6,0026.30,0010.72
2021-08-13 05:07:00,,0834.1,5.01,0.00,29.1,27.9,00.0,38.3,31.2,29.5,0026.21,0010.77
2021-08-13 05:08:00,,0834.0,5.00,0.00,29.2,28.2,00.0,38.3,31.3,29.4,0026.12,0010.82
2021-08-13 05:09:00,,0834.1,5.01,0.00,29.2,28.3,00.0,38.3,31.3,29.3,0025.36,0010.87
2021-08-13 05:10:00,,0834.1,4.98,0.00,29.3,28.5,00.0,38.3,31.4,29.3,0025.38,0010.87
2021-08-13 05:11:00,,0834.1,5.00,0.00,29.4,28.6,00.0,38.3,31.4,29.2,0026.84,0010.85
2021-08-13 05:12:00,,0834.1,5.01,0.00,29.4,28.7,00.0,38.4,31.4,29.2,0026.89,0010.88
2021-08-13 05:13:00,,0834.1,5.00,0.00,29.5,28.8,00.0,38.4,31.5,29.1,0028.37,0010.89
2021-08-13 05:14:00,,0834.2,5.00,0.00,29.5,28.9,00.0,38.4,31.6,28.9,0028.19,0010.87
2021-08-13 05:15:00,,0834.3,5.00,0.00,29.6,28.9,00.0,38.5,31.6,28.9,0027.80,0010.77
2021-08-13 05:16:00,,0834.3,5.00,0.00,29.6,27.5,00.0,38.5,31.2,28.9,0027.68,0010.70
2021-08-13 05:17:00,,0834.3,5.00,0.00,29.4,25.8,00.0,38.5,30.8,29.1,0028.32,0010.66
2021-08-13 05:18:00,,0834.3,4.99,0.00,29.2,25.5,00.0,38.4,30.7,29.4,0027.53,0010.54
2021-08-13 05:19:00,,0834.3,5.01,0.00,29.0,25.9,00.0,38.4,30.7,29.7,0028.31,0010.49
2021-08-13 05:20:00,,0834.3,5.00,0.00,29.0,26.4,00.0,38.3,30.8,29.9,0028.45,0010.44
2021-08-13 05:21:00,,0834.4,5.01,0.00,29.0,26.8,00.0,38.3,30.9,30.0,0028.30,0010.44
2021-08-13 05:22:00,,0834.5,4.99,0.00,29.0,27.2,00.0,38.3,31.0,30.0,0027.90,0010.44
2021-08-13 05:23:00,,0834.4,5.00,0.00,29.0,27.5,00.0,38.3,31.1,30.0,0027.98,0010.40
2021-08-13 05:24:00,,0834.4,5.01,0.00,29.1,27.8,00.0,38.3,31.1,29.9,0028.88,0010.39
2021-08-13 05:25:00,,0834.3,4.99,0.00,29.2,28.0,00.0,38.3,31.2,29.7,0030.31,0010.38
2021-08-13 05:26:00,,0834.4,5.01,0.00,29.2,28.2,00.0,38.3,31.3,29.6,0030.66,0010.31
2021-08-13 05:27:00,,0834.4,5.00,0.00,29.3,28.4,00.0,38.3,31.3,29.6,0032.82,0010.30
2021-08-13 05:28:00,,0834.4,5.00,0.00,29.3,28.5,00.0,38.3,31.4,29.5,0032.74,0010.32
2021-08-13 05:29:00,,0834.4,5.01,0.00,29.4,28.6,00.0,38.4,31.4,29.5,0032.61,0010.35
2021-08-13 05:30:00,,0834.4,5.01,0.00,29.5,28.7,00.0,38.4,31.5,29.4,0033.45,0010.29
2021-08-13 05:31:00,,0834.4,4.99,0.00,29.5,28.8,00.0,38.4,31.5,29.3,0033.71,0010.27
2021-08-13 05:32:00,,0834.4,5.00,0.00,29.6,28.9,00.0,38.5,31.6,29.3,0034.87,0010.21
2021-08-13 05:33:00,,0834.4,5.01,0.00,29.6,27.6,00.0,38.5,31.3,29.2,0035.41,0010.17
2021-08-13 05:34:00,,0834.4,5.00,0.00,29.4,25.9,00.0,38.5,30.9,29.6,0036.84,0010.24
2021-08-13 05:35:00,,0834.3,5.00,0.00,29.2,25.5,00.0,38.4,30.6,30.1,0035.62,0010.23
2021-08-13 05:36:00,,0834.3,5.01,0.00,29.0,25.8,00.0,38.4,30.7,30.3,0034.27,0010.27
2021-08-13 05:37:00,,0834.3,5.00,0.00,28.9,26.3,00.0,38.3,30.8,30.5,0034.63,0010.38
2021-08-13 05:38:00,,0834.3,5.00,0.00,28.9,26.8,00.0,38.3,30.9,30.7,0033.25,0010.50
2021-08-13 05:39:00,,0834.3,5.00,0.00,29.0,27.2,00.0,38.3,31.0,30.7,0033.88,0010.55
2021-08-13 05:40:00,,0834.3,5.00,0.00,29.0,27.5,00.0,38.3,31.1,30.7,0033.62,0010.53
2021-08-13 05:41:00,,0834.3,5.00,0.00,29.1,27.8,00.0,38.3,31.1,30.5,0032.80,0010.58
2021-08-13 05:42:00,,0834.4,5.01,0.00,29.1,28.0,00.0,38.3,31.2,30.2,0033.58,0010.57
2021-08-13 05:43:00,,0834.4,4.98,0.00,29.2,28.2,00.0,38.3,31.3,30.2,0033.10,0010.61
2021-08-13 05:44:00,,0834.4,5.01,0.00,29.3,28.4,00.0,38.3,31.3,30.2,0031.91,0010.65
2021-08-13 05:45:00,,0834.4,5.00,0.00,29.3,28.5,00.0,38.3,31.4,29.9,0031.29,0010.66
2021-08-13 05:46:00,,0834.5,5.01,0.00,29.4,28.6,00.0,38.4,31.4,29.8,0031.31,0010.63
2021-08-13 05:47:00,,0834.4,5.00,0.00,29.4,28.7,00.0,38.4,31.4,29.6,0030.61,0010.52
2021-08-13 05:48:00,,0834.5,5.00,0.00,29.5,28.8,00.0,38.4,31.5,29.5,0030.50,0010.49
2021-08-13 05:49:00,,0834.4,5.01,0.00,29.6,28.9,00.0,38.5,31.5,29.3,0030.97,0010.49
2021-08-13 05:50:00,,0834.4,4.99,0.00,29.5,27.7,00.0,38.5,31.3,29.1,0030.42,0010.39
2021-08-13 05:51:00,,0834.4,5.01,0.00,29.4,26.4,00.0,38.5,30.9,29.3,0031.14,0010.34
2021-08-13 05:52:00,,0834.4,4.98,0.00,29.2,26.4,00.0,38.4,30.8,29.6,0030.27,0010.32
2021-08-13 05:53:00,,0834.4,5.00,0.00,29.1,26.8,00.0,38.4,30.9,29.9,0030.16,0010.32
2021-08-13 05:54:00,,0834.4,5.01,0.00,29.1,27.1,00.0,38.4,31.0,29.9,0031.18,0010.29
2021-08-13 05:55:00,,0834.4,4.99,0.00,29.2,27.5,00.0,38.4,31.1,29.9,0030.70,0010.22
2021-08-13 05:56:00,,0834.4,5.00,0.00,29.2,27.8,00.0,38.4,31.2,29.8,0028.91,0010.11
2021-08-13 05:57:00,,0834.4,5.00,0.00,29.2,28.0,00.0,38.4,31.3,29.8,0030.12,0010.06
2021-08-13 05:58:00,,0834.4,5.01,0.00,29.3,28.2,00.0,38.4,31.3,29.7,0030.98,0010.08
2021-08-13 05:59:00,,0834.4,5.00,0.00,29.4,28.4,00.0,38.4,31.4,29.7,0030.48,0010.06
